This is the latest recevied weather packets stored in our database for station/object KD2VWU. If no packets are shown the sender has not sent any weather packets the latest 10 day(s).
| Time | Temp. | Humidity | Pressure | Rain* | Wind** | Luminosity | Snow |
|---|---|---|---|---|---|---|---|
| 1778003226 | 26.67° C | 47% | 1005.7 hPa | 0 mm | - | - | - |
| 1778002923 | 26.67° C | 46% | 1006 hPa | 0 mm | - | - | - |
| 1778002619 | 26.67° C | 51% | 1005.8 hPa | 0 mm | - | - | - |
| 1778002316 | 26.67° C | 46% | 1005.9 hPa | 0 mm | - | - | - |
| 1778002013 | 26.11° C | 45% | 1005.9 hPa | 0 mm | - | - | - |
| 1778001710 | 26.67° C | 49% | 1006 hPa | 0 mm | - | - | - |
| 1778001409 | 26.11° C | 48% | 1006 hPa | 0 mm | - | - | - |
| 1778001107 | 26.11° C | 50% | 1005.8 hPa | 0 mm | - | - | - |
| 1778000804 | 26.11° C | 50% | 1006.1 hPa | 0 mm | - | - | - |
| 1778000501 | 25.56° C | 46% | 1006 hPa | 0 mm | - | - | - |
| 1778000201 | 25.56° C | 47% | 1006.3 hPa | 0 mm | - | - | - |
| 1777999897 | 26.11° C | 47% | 1006.4 hPa | 0 mm | - | - | - |
| 1777999593 | 25.56° C | 45% | 1006.5 hPa | 0 mm | - | - | - |
| 1777999291 | 25.56° C | 51% | 1006.6 hPa | 0 mm | - | - | - |
| 1777998989 | 25.56° C | 45% | 1006.7 hPa | 0 mm | - | - | - |
| 1777998686 | 25.56° C | 50% | 1006.6 hPa | 0 mm | - | - | - |
| 1777998383 | 25.56° C | 47% | 1007 hPa | 0 mm | - | - | - |
| 1777998081 | 25° C | 49% | 1006.9 hPa | 0 mm | - | - | - |
| 1777997778 | 25.56° C | 48% | 1007 hPa | 0 mm | - | - | - |
| 1777997475 | 24.44° C | 52% | 1007.1 hPa | 0 mm | - | - | - |
| 1777997173 | 25° C | 49% | 1007.1 hPa | 0 mm | - | - | - |
| 1777996870 | 24.44° C | 50% | 1007.1 hPa | 0 mm | - | - | - |
| 1777996566 | 24.44° C | 50% | 1007.1 hPa | 0 mm | - | - | - |
| 1777996262 | 24.44° C | 51% | 1007.3 hPa | 0 mm | - | - | - |
| 1777995958 | 24.44° C | 51% | 1007.3 hPa | 0 mm | - | - | - |
* Rain latest hour (hover to see other rain measurements)
** Current wind speed in m/s (hover to see current wind gust speed)